This is the latest recevied weather packets stored in our database for station/object IZ1UQG-1. If no packets are shown the sender has not sent any weather packets the latest 10 day(s).
| Time | Temp. | Humidity | Pressure | Rain* | Wind** | Luminosity | Snow |
|---|---|---|---|---|---|---|---|
| 1777376950 | 20.56° C | 72% | 1015.5 hPa | 145.54 mm | - | - | - |
| 1777376650 | 20.56° C | 72% | 1015.4 hPa | 183.9 mm | - | - | - |
| 1777376350 | 20.56° C | 72% | 1015.5 hPa | 166.88 mm | - | - | - |
| 1777376050 | 20.56° C | 72% | 1015.5 hPa | 198.88 mm | - | - | - |
| 1777375750 | 20.56° C | 71% | 1015.6 hPa | 194.31 mm | - | - | - |
| 1777375450 | 20.56° C | 72% | 1015.5 hPa | 199.9 mm | - | - | - |
| 1777375150 | 20.56° C | 72% | 1015.5 hPa | 168.91 mm | - | - | - |
| 1777374850 | 20.56° C | 71% | 1015.6 hPa | 194.31 mm | - | - | - |
| 1777374550 | 20.56° C | 71% | 1015.6 hPa | 130.56 mm | - | - | - |
| 1777374250 | 20.56° C | 71% | 1015.6 hPa | 109.73 mm | - | - | - |
| 1777373950 | 20.56° C | 71% | 1015.5 hPa | 43.94 mm | - | - | - |
| 1777373650 | 20.56° C | 71% | 1015.5 hPa | 111 mm | - | - | - |
| 1777373350 | 20.56° C | 70% | 1015.8 hPa | 118.11 mm | - | - | - |
| 1777373050 | 20.56° C | 70% | 1015.7 hPa | 18.03 mm | - | - | - |
| 1777372750 | 20.56° C | 70% | 1015.8 hPa | 14.99 mm | - | - | - |
| 1777372450 | 20.56° C | 69% | 1015.8 hPa | 48.77 mm | - | - | - |
| 1777372151 | 20.56° C | 69% | 1015.7 hPa | 26.92 mm | - | - | - |
| 1777371851 | 20.56° C | 69% | 1015.7 hPa | 18.03 mm | - | - | - |
| 1777371550 | 20.56° C | 68% | 1015.7 hPa | 239.52 mm | - | - | - |
| 1777371250 | 20.56° C | 67% | 1015.6 hPa | 231.65 mm | - | - | - |
| 1777370950 | 20.56° C | 67% | 1015.7 hPa | 225.55 mm | - | - | - |
| 1777370650 | 20.56° C | 66% | 1015.8 hPa | 210.57 mm | - | - | - |
| 1777370350 | 20.56° C | 66% | 1015.8 hPa | 155.19 mm | - | - | - |
| 1777370050 | 20.56° C | 65% | 1015.7 hPa | 212.6 mm | - | - | - |
| 1777369750 | 20.56° C | 64% | 1015.6 hPa | 197.1 mm | - | - | - |
* Rain latest hour (hover to see other rain measurements)
** Current wind speed in m/s (hover to see current wind gust speed)